Regional Weather Roundup
Issued by NWS

Home | Current Version | Previous Version | Text Only | Print | Product List | Glossary On
Versions: 1 2 3 4 5 6 7 8 9 10 11 12 13 14 15 16 17 18 19 20 21 22 23 24 25 26 27 28 29 30 31 32 33 34 35 36 37 38 39 40 41 42 43 44 45 46 47 48 49 50
000
ASUS44 KFWD 220615
RWRTX
NORTH TEXAS HOURLY WEATHER ROUNDUP
NATIONAL WEATHER SERVICE FORT WORTH TX
1200 AM CST WED FEB 22 2017

NOTE: "FAIR" INDICATES FEW OR NO CLOUDS BELOW 12,000 FEET WITH NO
SIGNIFICANT WEATHER AND/OR OBSTRUCTIONS TO VISIBILITY.

TXZ118-119-220700-
DALLAS/FORT WORTH METROPLEX

CITY           SKY/WX    TMP DP  RH WIND       PRES   REMARKS
DFW AIRPORT    CLEAR     57  40  52 NW9       29.93F
6HR MIN TEMP:  57; 6HR MAX TEMP:  73;

DALLAS LOVE    CLEAR     57  45  64 CALM      29.94F
6HR MIN TEMP:  56; 6HR MAX TEMP:  73;

FTW MEACHAM    CLEAR     57  39  51 NW3       29.94F
6HR MIN TEMP:  56; 6HR MAX TEMP:  73;

DAL-EXECUTIVE  CLEAR     56  42  59 CALM      29.94F
6HR MIN TEMP:  55; 6HR MAX TEMP:  71;

FTW-ALLIANCE   PTCLDY    48  39  71 SW3       29.95F
6HR MIN TEMP:  46; 6HR MAX TEMP:  71;

FTW-NAS-JRB    CLEAR     55  44  66 NW3       29.95F
6HR MIN TEMP:  54; 6HR MAX TEMP:  74;

FTW-SPINKS     CLEAR     47  41  80 CALM      29.97F
6HR MIN TEMP:  47; 6HR MAX TEMP:  70;

ARLINGTON      CLEAR     51  40  65 W5        29.95F
6HR MIN TEMP:  51; 6HR MAX TEMP:  73;

GRAND PRAIRIE  CLEAR     61  37  39 W5        29.97F
6HR MIN TEMP:  61; 6HR MAX TEMP:  74;

ADDISON        CLEAR     57  42  58 CALM      29.96F
6HR MIN TEMP:  56; 6HR MAX TEMP:  71;

MESQUITE       CLEAR     51  46  81 CALM      29.94F
6HR MIN TEMP:  51; 6HR MAX TEMP:  70;

LANCASTER      CLEAR     51  43  74 CALM      29.95F
6HR MIN TEMP:  50; 6HR MAX TEMP:  68;

$$

TXZ091>094-102>105-117-120-121-131>134-220700-
NORTH CENTRAL TEXAS

CITY           SKY/WX    TMP DP  RH WIND       PRES   REMARKS
SHRMAN/DENISON CLEAR     53  42  66 CALM      29.95F
6HR MIN TEMP:  52; 6HR MAX TEMP:  68;

GAINESVILLE    CLEAR     47  39  73 CALM      29.96F
6HR MIN TEMP:  46; 6HR MAX TEMP:  69;

BOWIE          CLEAR     47  41  81 CALM      29.95F
6HR MIN TEMP:  47; 6HR MAX TEMP:  69;

BRIDGEPORT     CLEAR     52  39  61 SW3       29.97F
6HR MIN TEMP:  50; 6HR MAX TEMP:  69;

DECATUR        CLEAR     58  38  47 CALM      29.95F
6HR MIN TEMP:  58; 6HR MAX TEMP:  70;

DENTON         CLEAR     51  42  71 CALM      29.95F
6HR MIN TEMP:  50; 6HR MAX TEMP:  70;

MCKINNEY       CLEAR     49  45  86 CALM      29.94F
6HR MIN TEMP:  49; 6HR MAX TEMP:  70;

BONHAM         CLEAR     54  45  71 NE3       29.94F
GREENVILLE     CLEAR     52  46  82 CALM      29.94F
ROCKWALL       CLEAR     55  48  78 CALM      29.95F
6HR MIN TEMP:  54; 6HR MAX TEMP:  70;

TERRELL        CLEAR     51  46  83 CALM      29.94F
6HR MIN TEMP:  51; 6HR MAX TEMP:  72;

WAXAHACHIE     CLEAR     55  41  59 W5        29.96F
6HR MIN TEMP:  55; 6HR MAX TEMP:  71;

CLEBURNE       CLEAR     54  43  66 W5        29.98S
GRANBURY       CLEAR     49  40  69 CALM      29.98F
6HR MIN TEMP:  49; 6HR MAX TEMP:  72;

$$

TXZ083>090-098>101-113>116-127>130-139>142-154-155-220700-
WESTERN NORTH TEXAS

CITY           SKY/WX    TMP DP  RH WIND       PRES   REMARKS
WICHITA FALLS  CLEAR     57  40  52 SW7       29.95S
6HR MIN TEMP:  52; 6HR MAX TEMP:  70;

WF-KICKAPOO    CLEAR     54  42  63 SW3       29.96F
6HR MIN TEMP:  51; 6HR MAX TEMP:  72;

VERNON         CLEAR     51  39  62 SW5       29.96S
6HR MIN TEMP:  51; 6HR MAX TEMP:  65;

ABILENE        CLEAR     50  34  54 SE8       29.99F
6HR MIN TEMP:  49; 6HR MAX TEMP:  75;

ABILENE-DYESS  CLEAR     46  37  70 SW5       29.98F
6HR MIN TEMP:  44; 6HR MAX TEMP:  74;

GRAHAM         CLEAR     45  41  87 CALM      29.96F
BRECKENRIDGE   CLEAR     51  40  66 SW5       29.97F
6HR MIN TEMP:  49; 6HR MAX TEMP:  73;

CISCO          CLEAR     55  36  47 S8        30.00F
RANGER         CLEAR     48  32  53 CALM      29.99F
MINERAL WELLS  CLEAR     48  38  68 W3        29.95F
6HR MIN TEMP:  48; 6HR MAX TEMP:  71;

STEPHENVILLE   CLEAR     51  37  58 CALM      30.01S
6HR MIN TEMP:  51; 6HR MAX TEMP:  73;

COMANCHE       CLEAR     63  35  35 CALM      29.99F
6HR MIN TEMP:  60; 6HR MAX TEMP:  72;

BROWNWOOD      CLEAR     45  41  87 CALM      30.00F
COLEMAN        CLEAR     49  38  64 W5        30.00F
6HR MIN TEMP:  49; 6HR MAX TEMP:  72;

$$

TXZ143>147-156>162-174-175-220700-
CENTRAL TEXAS

CITY           SKY/WX    TMP DP  RH WIND       PRES   REMARKS
WACO           CLEAR     48  41  76 S3        29.96F
6HR MIN TEMP:  47; 6HR MAX TEMP:  71;

WACO-MCGREGOR  CLEAR     51  41  68 CALM      29.96F
6HR MIN TEMP:  49; 6HR MAX TEMP:  69;

HILLSBORO      CLEAR     49  44  83 CALM      29.96S
6HR MIN TEMP:  49; 6HR MAX TEMP:  70;

CORSICANA      CLEAR     55  47  74 NW8       29.95F
6HR MIN TEMP:  54; 6HR MAX TEMP:  71;

MEXIA          CLEAR     57  44  60 W8        29.94F
6HR MIN TEMP:  57; 6HR MAX TEMP:  70;

HEARNE         CLEAR     51  49  93 CALM      29.96F
6HR MIN TEMP:  50; 6HR MAX TEMP:  70;

CAMERON        CLEAR     55  45  68 CALM      29.96S
6HR MIN TEMP:  55; 6HR MAX TEMP:  70;

TEMPLE         CLEAR     51  45  79 CALM      29.97
6HR MIN TEMP:  50; 6HR MAX TEMP:  71;

KILLEEN        CLEAR     62  35  37 N8        29.96F
6HR MIN TEMP:  58; 6HR MAX TEMP:  72;

KILLEEN-SKYLRK CLEAR     57  38  48 NW6       29.97F
6HR MIN TEMP:  51; 6HR MAX TEMP:  74;

FORT HOOD      CLEAR     55  39  53 CALM      29.95S
6HR MIN TEMP:  54; 6HR MAX TEMP:  73;

GATESVILLE     CLEAR     52  39  62 CALM      29.99F
HAMILTON       CLEAR     56  38  50 NW10      29.99F
6HR MIN TEMP:  55; 6HR MAX TEMP:  72;

LAMPASAS       CLEAR     53  42  66 CALM      29.97F
6HR MIN TEMP:  50; 6HR MAX TEMP:  76;

$$

TXZ095>097-106>112-122>126-135>138-148>153-164>167-220700-
EAST TEXAS

CITY           SKY/WX    TMP DP  RH WIND       PRES   REMARKS
PARIS          CLEAR     55  48  76 W7        29.93S
6HR MIN TEMP:  54; 6HR MAX TEMP:  66;

SULPHUR SPRNGS CLEAR     53  50  89 W6        29.95F
6HR MIN TEMP:  53; 6HR MAX TEMP:  67;

MOUNT PLEASANT CLEAR     53  50  87 CALM      29.92S
6HR MIN TEMP:  53; 6HR MAX TEMP:  68;

GILMER         CLEAR     55  50  83 CALM      29.91S
6HR MIN TEMP:  52; 6HR MAX TEMP:  66;

MINEOLA        CLEAR     52  50  93 W3        29.92F
TYLER          CLEAR     57  51  80 NW6       29.92F
6HR MIN TEMP:  55; 6HR MAX TEMP:  70;

LONGVIEW       PTCLDY    57  52  83 W7        29.89F
6HR MIN TEMP:  55; 6HR MAX TEMP:  68;

MARSHALL       CLOUDY    63  53  70 W3        29.90F
6HR MIN TEMP:  63; 6HR MAX TEMP:  65;

ATHENS         CLEAR     50  50 100 CALM      29.93S
PALESTINE      CLEAR     51  50  96 CALM      29.94F
JACKSONVILLE   CLEAR     60  51  71 NW3       29.94S
HENDERSON      CLEAR     58  50  77 CALM      29.92S
6HR MIN TEMP:  54; 6HR MAX TEMP:  68;

CENTER         CLOUDY    59  57  95 NW5       29.90S
6HR MIN TEMP:  59; 6HR MAX TEMP:  71;

NACOGDOCHES    CLEAR     50  48  93 CALM      29.89F
6HR MIN TEMP:  50; 6HR MAX TEMP:  70;

LUFKIN         CLEAR     53  51  93 CALM      29.91S
6HR MIN TEMP:  52; 6HR MAX TEMP:  68;

$$

SUPPLEMENTAL OBSERVATIONS (CENTRAL)

CITY           SKY/WX    TMP DP  RH WIND       PRES   REMARKS
DENISON DAM      N/A     59  39  47 W5          N/A


USA.gov is the U.S. government's official web portal to all federal, state and local government web resources and services.